Regional Weather Roundup
Issued by NWS Charleston, WV

Home | Current Version | Previous Version | Text Only | Print | Product List | Glossary Off
Versions: 1 2 3 4 5 6 7 8 9 10 11 12 13 14 15 16 17 18 19 20 21 22 23 24 25 26 27 28 29 30 31 32 33 34 35 36 37 38 39 40 41 42 43 44 45 46 47 48 49 50

000
ASUS41 KRLX 131410
RWRRLX
West Virginia Regional Weather Roundup
National Weather Service Charleston WV
900 AM EST SAT FEB 13 2016

Note: "fair" indicates few or no clouds below 12,000 feet with no
significant weather and/or obstructions to visibility.

WVZ003-131500-
Northern Panhandle of West Virginia

CITY           SKY/WX    TMP DP  RH WIND       PRES   REMARKS
WHEELING         N/A      7  -7  52 W13       30.33R WCI  -9
$$

WVZ009-131500-
Northwest West Virginia

CITY           SKY/WX    TMP DP  RH WIND       PRES   REMARKS
PARKERSBURG      N/A      9  -7  48 W16G22    30.46R WCI  -8
$$

WVZ006-131500-
Western West Virginia

CITY           SKY/WX    TMP DP  RH WIND       PRES   REMARKS
HUNTINGTON     LGT SNOW  15   5  64 NW13G20   30.47R WCI   1
$$

WVZ015-131500-
West Central West Virginia

CITY           SKY/WX    TMP DP  RH WIND       PRES   REMARKS
CHARLESTON     PTSUNNY   14   2  58 N14G24    30.42R WCI  -1
$$

WVZ022-031-131500-
North Central West Virginia

CITY           SKY/WX    TMP DP  RH WIND       PRES   REMARKS
CLARKSBURG     CLOUDY    10  -5  50 NW14G23   30.32R WCI  -6
MORGANTOWN     NOT AVBL
$$

WVZ025-035-042-045-131500-
Southern West Virginia

CITY           SKY/WX    TMP DP  RH WIND       PRES   REMARKS
BECKLEY        LGT SNOW   8   0  69 NW14G24   30.24R WCI  -8
LOGAN          FLURRIES  12   3  67 NW10G17   30.36R WCI  -1
BLUEFIELD      MIX PCPN   8  -1  66 W20G29    30.20R WCI -11
LEWISBURG      CLOUDY    13   1  59 NW12G17   30.20R HAZE    WCI  -1
$$

WVZ047-131500-
Northern Mountains of West Virginia

CITY           SKY/WX    TMP DP  RH WIND       PRES   REMARKS
ELKINS         LGT SNOW   8   0  69 NW15G24   30.22R WCI  -9
$$

WVZ052-131500-
Eastern Panhandle of West Virginia

CITY           SKY/WX    TMP DP  RH WIND       PRES   REMARKS
MARTINSBURG    PTSUNNY   15  -2  46 NW12G25   30.23R WCI   2
PETERSBURG     CLOUDY    15   1  54 NW6G18    30.26R WCI   6
$$



USA.gov is the U.S. government's official web portal to all federal, state and local government web resources and services.